����������;��������(kWh)
2018-01-29 00:00;102,1
2018-01-29 00:15;107
2018-01-29 00:30;102,8
2018-01-29 00:45;101,2
2018-01-29 01:00;104,5
2018-01-29 01:15;104,7
2018-01-29 01:30;101,5
2018-01-29 01:45;104,2
2018-01-29 02:00;105,3
2018-01-29 02:15;102,75
2018-01-29 02:30;103,9
2018-01-29 02:45;102,3
2018-01-29 03:00;102,4
2018-01-29 03:15;104,3
2018-01-29 03:30;101,4
2018-01-29 03:45;104,25
2018-01-29 04:00;104,05
2018-01-29 04:15;102,75
2018-01-29 04:30;100,35
2018-01-29 04:45;99
2018-01-29 05:00;100,25
2018-01-29 05:15;100,05
2018-01-29 05:30;103,55
2018-01-29 05:45;104,15
2018-01-29 06:00;103,95
2018-01-29 06:15;100,75
2018-01-29 06:30;103,7
2018-01-29 06:45;104,5
2018-01-29 07:00;106,1
2018-01-29 07:15;108,5
2018-01-29 07:30;129,5
2018-01-29 07:45;118,15
2018-01-29 08:00;132,3
2018-01-29 08:15;142,7
2018-01-29 08:30;201,1
2018-01-29 08:45;163,8
2018-01-29 09:00;175,25
2018-01-29 09:15;197,35
2018-01-29 09:30;202,9
2018-01-29 09:45;211,05
2018-01-29 10:00;227,1
2018-01-29 10:15;232,85
2018-01-29 10:30;239,05
2018-01-29 10:45;247,75
2018-01-29 11:00;239,15
2018-01-29 11:15;244,4
2018-01-29 11:30;239,85
2018-01-29 11:45;244,7
2018-01-29 12:00;266,15
2018-01-29 12:15;271,55
2018-01-29 12:30;269,8
2018-01-29 12:45;265,2
2018-01-29 13:00;258,05
2018-01-29 13:15;268,55
2018-01-29 13:30;271,9
2018-01-29 13:45;274,3
2018-01-29 14:00;280,25
2018-01-29 14:15;274,35
2018-01-29 14:30;265,75
2018-01-29 14:45;258,25
2018-01-29 15:00;246,3
2018-01-29 15:15;233,1
2018-01-29 15:30;225,25
2018-01-29 15:45;212,95
2018-01-29 16:00;205,1
2018-01-29 16:15;198,8
2018-01-29 16:30;191,9
2018-01-29 16:45;193,35
2018-01-29 17:00;194,45
2018-01-29 17:15;186,5
2018-01-29 17:30;174,95
2018-01-29 17:45;171,4
2018-01-29 18:00;177,5
2018-01-29 18:15;180,45
2018-01-29 18:30;174,1
2018-01-29 18:45;173,25
2018-01-29 19:00;172,7
2018-01-29 19:15;167,35
2018-01-29 19:30;165,55
2018-01-29 19:45;161,55
2018-01-29 20:00;153,6
2018-01-29 20:15;140,95
2018-01-29 20:30;140,3
2018-01-29 20:45;140
2018-01-29 21:00;134,95
2018-01-29 21:15;130,25
2018-01-29 21:30;132,55
2018-01-29 21:45;128,25
2018-01-29 22:00;121,65
2018-01-29 22:15;120,9
2018-01-29 22:30;120,6
2018-01-29 22:45;118,2
2018-01-29 23:00;120,7
2018-01-29 23:15;121,2
2018-01-29 23:30;121,75
2018-01-29 23:45;123,6
2018-01-30 00:00;112,5
2018-01-30 00:15;115,8
2018-01-30 00:30;105,75
2018-01-30 00:45;102,5
2018-01-30 01:00;111,75
2018-01-30 01:15;111,35
2018-01-30 01:30;110,5
2018-01-30 01:45;112,3
2018-01-30 02:00;108,1
2018-01-30 02:15;109
2018-01-30 02:30;104,5
2018-01-30 02:45;106,2
2018-01-30 03:00;106,8
2018-01-30 03:15;102,05
2018-01-30 03:30;103,7
2018-01-30 03:45;102,2
2018-01-30 04:00;104,45
2018-01-30 04:15;100,4
2018-01-30 04:30;101,3
2018-01-30 04:45;101
2018-01-30 05:00;98,7
2018-01-30 05:15;95,9
2018-01-30 05:30;95,75
2018-01-30 05:45;99,45
2018-01-30 06:00;97,1
2018-01-30 06:15;97,5
2018-01-30 06:30;100,2
2018-01-30 06:45;98,6
2018-01-30 07:00;97
2018-01-30 07:15;99,85
2018-01-30 07:30;144,45
2018-01-30 07:45;118,3
2018-01-30 08:00;106,1
2018-01-30 08:15;102,1
2018-01-30 08:30;101,35
2018-01-30 08:45;106,5
2018-01-30 09:00;107,9
2018-01-30 09:15;105,75
2018-01-30 09:30;103
2018-01-30 09:45;110,3
2018-01-30 10:00;112,8
2018-01-30 10:15;85,6
2018-01-30 10:30;82,75
2018-01-30 10:45;81,4
2018-01-30 11:00;84,15
2018-01-30 11:15;89,05
2018-01-30 11:30;86,1
2018-01-30 11:45;87,35
2018-01-30 12:00;90,25
2018-01-30 12:15;88,75
2018-01-30 12:30;89,45
2018-01-30 12:45;89,55
2018-01-30 13:00;90,55
2018-01-30 13:15;93,75
2018-01-30 13:30;98,2
2018-01-30 13:45;120,75
2018-01-30 14:00;147,15
2018-01-30 14:15;147,8
2018-01-30 14:30;146,55
2018-01-30 14:45;143,9
2018-01-30 15:00;145,15
2018-01-30 15:15;145
2018-01-30 15:30;136,15
2018-01-30 15:45;133,1
2018-01-30 16:00;133,45
2018-01-30 16:15;129,15
2018-01-30 16:30;126,05
2018-01-30 16:45;135,4
2018-01-30 17:00;141,4
2018-01-30 17:15;138,6
2018-01-30 17:30;143,85
2018-01-30 17:45;145,15
2018-01-30 18:00;138,85
2018-01-30 18:15;136,1
2018-01-30 18:30;130,2
2018-01-30 18:45;132,55
2018-01-30 19:00;133,05
2018-01-30 19:15;127,1
2018-01-30 19:30;125,2
2018-01-30 19:45;127,45
2018-01-30 20:00;124,8
2018-01-30 20:15;125,3
2018-01-30 20:30;131,1
2018-01-30 20:45;130
2018-01-30 21:00;130
2018-01-30 21:15;124,25
2018-01-30 21:30;126,15
2018-01-30 21:45;125,8
2018-01-30 22:00;122,15
2018-01-30 22:15;113,1
2018-01-30 22:30;110,7
2018-01-30 22:45;109,3
2018-01-30 23:00;112,15
2018-01-30 23:15;113,5
2018-01-30 23:30;115,5
2018-01-30 23:45;116,5
2018-01-31 00:00;102
2018-01-31 00:15;105,75
2018-01-31 00:30;103,65
2018-01-31 00:45;104,55
2018-01-31 01:00;102,8
2018-01-31 01:15;102,85
2018-01-31 01:30;114,7
2018-01-31 01:45;106,15
2018-01-31 02:00;103,45
2018-01-31 02:15;104,1
2018-01-31 02:30;106,75
2018-01-31 02:45;104,45
2018-01-31 03:00;103,05
2018-01-31 03:15;105,65
2018-01-31 03:30;100,55
2018-01-31 03:45;100,6
2018-01-31 04:00;102,65
2018-01-31 04:15;100,35
2018-01-31 04:30;99,65
2018-01-31 04:45;101,35
2018-01-31 05:00;96,8
2018-01-31 05:15;98,4
2018-01-31 05:30;100,35
2018-01-31 05:45;96,7
2018-01-31 06:00;100,25
2018-01-31 06:15;97,5
2018-01-31 06:30;98,45
2018-01-31 06:45;96,95
2018-01-31 07:00;101,2
2018-01-31 07:15;104,65
2018-01-31 07:30;117,2
2018-01-31 07:45;124,3
2018-01-31 08:00;128,6
2018-01-31 08:15;131,15
2018-01-31 08:30;145,65
2018-01-31 08:45;186,05
2018-01-31 09:00;196,05
2018-01-31 09:15;183
2018-01-31 09:30;194,6
2018-01-31 09:45;200,9
2018-01-31 10:00;220,1
2018-01-31 10:15;220,3
2018-01-31 10:30;226,05
2018-01-31 10:45;231,2
2018-01-31 11:00;226,95
2018-01-31 11:15;239,25
2018-01-31 11:30;239,65
2018-01-31 11:45;238,8
2018-01-31 12:00;242,25
2018-01-31 12:15;227,8
2018-01-31 12:30;233,75
2018-01-31 12:45;227,75
2018-01-31 13:00;227,35
2018-01-31 13:15;231,8
2018-01-31 13:30;220,3
2018-01-31 13:45;223,7
2018-01-31 14:00;220,85
2018-01-31 14:15;220,7
2018-01-31 14:30;216,85
2018-01-31 14:45;227
2018-01-31 15:00;220,5
2018-01-31 15:15;217,5
2018-01-31 15:30;207,15
2018-01-31 15:45;204,3
2018-01-31 16:00;197,25
2018-01-31 16:15;180,5
2018-01-31 16:30;178,9
2018-01-31 16:45;183,1
2018-01-31 17:00;183,45
2018-01-31 17:15;172,55
2018-01-31 17:30;173
2018-01-31 17:45;173,1
2018-01-31 18:00;172,35
2018-01-31 18:15;170,6
2018-01-31 18:30;166,85
2018-01-31 18:45;167,2
2018-01-31 19:00;175,3
2018-01-31 19:15;165,9
2018-01-31 19:30;161,8
2018-01-31 19:45;158,8
2018-01-31 20:00;149,95
2018-01-31 20:15;151,45
2018-01-31 20:30;148,35
2018-01-31 20:45;145,5
2018-01-31 21:00;143
2018-01-31 21:15;133,85
2018-01-31 21:30;130,45
2018-01-31 21:45;122,9
2018-01-31 22:00;119,75
2018-01-31 22:15;119,3
2018-01-31 22:30;119,6
2018-01-31 22:45;117,7
2018-01-31 23:00;118,85
2018-01-31 23:15;114,35
2018-01-31 23:30;120,9
2018-01-31 23:45;122,3
2018-02-01 00:00;110,25
2018-02-01 00:15;112,05
2018-02-01 00:30;113,05
2018-02-01 00:45;109,15
2018-02-01 01:00;110,6
2018-02-01 01:15;111,8
2018-02-01 01:30;108,45
2018-02-01 01:45;110,2
2018-02-01 02:00;110,35
2018-02-01 02:15;108,1
2018-02-01 02:30;105
2018-02-01 02:45;108,8
2018-02-01 03:00;104,7
2018-02-01 03:15;106
2018-02-01 03:30;105,9
2018-02-01 03:45;106
2018-02-01 04:00;106,75
2018-02-01 04:15;104,1
2018-02-01 04:30;106,7
2018-02-01 04:45;102,6
2018-02-01 05:00;101,2
2018-02-01 05:15;106,75
2018-02-01 05:30;107,4
2018-02-01 05:45;104,8
2018-02-01 06:00;106,55
2018-02-01 06:15;103,25
2018-02-01 06:30;104,6
2018-02-01 06:45;102,95
2018-02-01 07:00;105,6
2018-02-01 07:15;107,45
2018-02-01 07:30;166,9
2018-02-01 07:45;136,4
2018-02-01 08:00;135,55
2018-02-01 08:15;144,45
2018-02-01 08:30;148,3
2018-02-01 08:45;165,45
2018-02-01 09:00;172,9
2018-02-01 09:15;181,95
2018-02-01 09:30;188,2
2018-02-01 09:45;198
2018-02-01 10:00;205,55
2018-02-01 10:15;203,4
2018-02-01 10:30;204,65
2018-02-01 10:45;222,7
2018-02-01 11:00;229,25
2018-02-01 11:15;226,35
2018-02-01 11:30;233,1
2018-02-01 11:45;249,75
2018-02-01 12:00;289,5
2018-02-01 12:15;268,7
2018-02-01 12:30;249,65
2018-02-01 12:45;239,3
2018-02-01 13:00;248,75
2018-02-01 13:15;231,35
2018-02-01 13:30;235,35
2018-02-01 13:45;246,4
2018-02-01 14:00;233,45
2018-02-01 14:15;246,55
2018-02-01 14:30;232,95
2018-02-01 14:45;246,3
2018-02-01 15:00;230,05
2018-02-01 15:15;226,25
2018-02-01 15:30;219,45
2018-02-01 15:45;208,7
2018-02-01 16:00;194,9
2018-02-01 16:15;183,5
2018-02-01 16:30;177,85
2018-02-01 16:45;174,6
2018-02-01 17:00;170,95
2018-02-01 17:15;167
2018-02-01 17:30;165,9
2018-02-01 17:45;167,05
2018-02-01 18:00;177,95
2018-02-01 18:15;171,5
2018-02-01 18:30;163,15
2018-02-01 18:45;163,8
2018-02-01 19:00;162,2
2018-02-01 19:15;158,3
2018-02-01 19:30;155
2018-02-01 19:45;158,15
2018-02-01 20:00;153,95
2018-02-01 20:15;151,5
2018-02-01 20:30;144,2
2018-02-01 20:45;140,95
2018-02-01 21:00;142,4
2018-02-01 21:15;133,15
2018-02-01 21:30;132,1
2018-02-01 21:45;131,2
2018-02-01 22:00;127,3
2018-02-01 22:15;126,65
2018-02-01 22:30;119,45
2018-02-01 22:45;113,25
2018-02-01 23:00;119,65
2018-02-01 23:15;112,95
2018-02-01 23:30;114,6
2018-02-01 23:45;121,8
2018-02-02 00:00;108,6
2018-02-02 00:15;110,1
2018-02-02 00:30;112,25
2018-02-02 00:45;112,55
2018-02-02 01:00;106,5
2018-02-02 01:15;105,35
2018-02-02 01:30;105,85
2018-02-02 01:45;106,6
2018-02-02 02:00;108,9
2018-02-02 02:15;103
2018-02-02 02:30;102,65
2018-02-02 02:45;103,4
2018-02-02 03:00;103
2018-02-02 03:15;102,6
2018-02-02 03:30;101,65
2018-02-02 03:45;99,95
2018-02-02 04:00;101,75
2018-02-02 04:15;100,95
2018-02-02 04:30;101,35
2018-02-02 04:45;101,2
2018-02-02 05:00;98,6
2018-02-02 05:15;100,6
2018-02-02 05:30;103,15
2018-02-02 05:45;101,15
2018-02-02 06:00;101,9
2018-02-02 06:15;98,95
2018-02-02 06:30;101,9
2018-02-02 06:45;100,65
2018-02-02 07:00;103,15
2018-02-02 07:15;109,45
2018-02-02 07:30;160,25
2018-02-02 07:45;126,6
2018-02-02 08:00;123,45
2018-02-02 08:15;132,85
2018-02-02 08:30;141,95
2018-02-02 08:45;153,1
2018-02-02 09:00;162,65
2018-02-02 09:15;170,6
2018-02-02 09:30;169,9
2018-02-02 09:45;174,25
2018-02-02 10:00;227,95
2018-02-02 10:15;236,05
2018-02-02 10:30;201,9
2018-02-02 10:45;219,65
2018-02-02 11:00;219,3
2018-02-02 11:15;214,15
2018-02-02 11:30;220,7
2018-02-02 11:45;230,3
2018-02-02 12:00;229,35
2018-02-02 12:15;235,25
2018-02-02 12:30;223,8
2018-02-02 12:45;242,8
2018-02-02 13:00;211
2018-02-02 13:15;225,35
2018-02-02 13:30;228,75
2018-02-02 13:45;230,45
2018-02-02 14:00;235
2018-02-02 14:15;227,5
2018-02-02 14:30;199
2018-02-02 14:45;201,2
2018-02-02 15:00;187,35
2018-02-02 15:15;188,25
2018-02-02 15:30;186,9
2018-02-02 15:45;179,9
2018-02-02 16:00;177,7
2018-02-02 16:15;175,55
2018-02-02 16:30;167,25
2018-02-02 16:45;165,95
2018-02-02 17:00;163,85
2018-02-02 17:15;152,6
2018-02-02 17:30;156,9
2018-02-02 17:45;158
2018-02-02 18:00;156,75
2018-02-02 18:15;153,8
2018-02-02 18:30;151,5
2018-02-02 18:45;158,05
2018-02-02 19:00;162,55
2018-02-02 19:15;153,75
2018-02-02 19:30;154,65
2018-02-02 19:45;150,2
2018-02-02 20:00;142,7
2018-02-02 20:15;136,15
2018-02-02 20:30;134,5
2018-02-02 20:45;129,65
2018-02-02 21:00;127
2018-02-02 21:15;126,55
2018-02-02 21:30;118
2018-02-02 21:45;118,2
2018-02-02 22:00;113,95
2018-02-02 22:15;113,7
2018-02-02 22:30;110,6
2018-02-02 22:45;108,55
2018-02-02 23:00;114,45
2018-02-02 23:15;107,05
2018-02-02 23:30;108
2018-02-02 23:45;112,7
2018-02-03 00:00;99,7
2018-02-03 00:15;101,65
2018-02-03 00:30;103
2018-02-03 00:45;103,4
2018-02-03 01:00;102,35
2018-02-03 01:15;101,5
2018-02-03 01:30;97,5
2018-02-03 01:45;97,4
2018-02-03 02:00;98,4
2018-02-03 02:15;97,4
2018-02-03 02:30;99,45
2018-02-03 02:45;98,25
2018-02-03 03:00;98,5
2018-02-03 03:15;98,55
2018-02-03 03:30;98
2018-02-03 03:45;98,3
2018-02-03 04:00;98,6
2018-02-03 04:15;99,35
2018-02-03 04:30;100,25
2018-02-03 04:45;99,5
2018-02-03 05:00;94,95
2018-02-03 05:15;96,5
2018-02-03 05:30;96
2018-02-03 05:45;95,7
2018-02-03 06:00;98,25
2018-02-03 06:15;95,9
2018-02-03 06:30;96,25
2018-02-03 06:45;96,85
2018-02-03 07:00;97,15
2018-02-03 07:15;95,75
2018-02-03 07:30;94,65
2018-02-03 07:45;91,9
2018-02-03 08:00;92,45
2018-02-03 08:15;89,45
2018-02-03 08:30;89,15
2018-02-03 08:45;90,2
2018-02-03 09:00;89,05
2018-02-03 09:15;87,6
2018-02-03 09:30;88,7
2018-02-03 09:45;89,7
2018-02-03 10:00;89,7
2018-02-03 10:15;91,65
2018-02-03 10:30;91,35
2018-02-03 10:45;95,65
2018-02-03 11:00;96,45
2018-02-03 11:15;99,55
2018-02-03 11:30;104,45
2018-02-03 11:45;104,45
2018-02-03 12:00;103,8
2018-02-03 12:15;105,15
2018-02-03 12:30;106,4
2018-02-03 12:45;107,85
2018-02-03 13:00;103,7
2018-02-03 13:15;107,5
2018-02-03 13:30;106,4
2018-02-03 13:45;105,2
2018-02-03 14:00;108,25
2018-02-03 14:15;108,6
2018-02-03 14:30;105,35
2018-02-03 14:45;107,35
2018-02-03 15:00;111,85
2018-02-03 15:15;107,05
2018-02-03 15:30;104,95
2018-02-03 15:45;104,3
2018-02-03 16:00;102,15
2018-02-03 16:15;101,4
2018-02-03 16:30;103,2
2018-02-03 16:45;104,6
2018-02-03 17:00;104,8
2018-02-03 17:15;104,55
2018-02-03 17:30;111,85
2018-02-03 17:45;115,5
2018-02-03 18:00;116
2018-02-03 18:15;117,6
2018-02-03 18:30;115,4
2018-02-03 18:45;116,25
2018-02-03 19:00;119,35
2018-02-03 19:15;116,35
2018-02-03 19:30;115,05
2018-02-03 19:45;115,05
2018-02-03 20:00;114,6
2018-02-03 20:15;114,7
2018-02-03 20:30;109,7
2018-02-03 20:45;108,75
2018-02-03 21:00;104,9
2018-02-03 21:15;107,8
2018-02-03 21:30;107,3
2018-02-03 21:45;102,2
2018-02-03 22:00;98,85
2018-02-03 22:15;100,65
2018-02-03 22:30;100,5
2018-02-03 22:45;99,15
2018-02-03 23:00;103,25
2018-02-03 23:15;97,75
2018-02-03 23:30;99,75
2018-02-03 23:45;103,25
2018-02-04 00:00;91,65
2018-02-04 00:15;92,5
2018-02-04 00:30;93,4
2018-02-04 00:45;92,05
2018-02-04 01:00;92,45
2018-02-04 01:15;91,2
2018-02-04 01:30;92,6
2018-02-04 01:45;92,75
2018-02-04 02:00;93,05
2018-02-04 02:15;92,65
2018-02-04 02:30;93,25
2018-02-04 02:45;94,1
2018-02-04 03:00;94,5
2018-02-04 03:15;94,8
2018-02-04 03:30;94,6
2018-02-04 03:45;93,15
2018-02-04 04:00;92,75
2018-02-04 04:15;92,85
2018-02-04 04:30;93,15
2018-02-04 04:45;91,9
2018-02-04 05:00;91,55
2018-02-04 05:15;89,5
2018-02-04 05:30;90,35
2018-02-04 05:45;90
2018-02-04 06:00;92,05
2018-02-04 06:15;91,05
2018-02-04 06:30;93,7
2018-02-04 06:45;93,7
2018-02-04 07:00;93,8
2018-02-04 07:15;94,9
2018-02-04 07:30;92,6
2018-02-04 07:45;87,4
2018-02-04 08:00;87
2018-02-04 08:15;85,95
2018-02-04 08:30;86,4
2018-02-04 08:45;88,95
2018-02-04 09:00;87,2
2018-02-04 09:15;85
2018-02-04 09:30;84
2018-02-04 09:45;84,15
2018-02-04 10:00;85,95
2018-02-04 10:15;85,3
2018-02-04 10:30;85,15
2018-02-04 10:45;87,1
2018-02-04 11:00;88,55
2018-02-04 11:15;96,5
2018-02-04 11:30;96,15
2018-02-04 11:45;97,3
2018-02-04 12:00;102,4
2018-02-04 12:15;100,65
2018-02-04 12:30;94,55
2018-02-04 12:45;96,05
2018-02-04 13:00;93,75
2018-02-04 13:15;95,8
2018-02-04 13:30;100,15
2018-02-04 13:45;101
2018-02-04 14:00;100,6
2018-02-04 14:15;100,35
2018-02-04 14:30;99,15
2018-02-04 14:45;103,55
2018-02-04 15:00;97,4
2018-02-04 15:15;101,35
2018-02-04 15:30;101,5
2018-02-04 15:45;102,7
2018-02-04 16:00;103,2
2018-02-04 16:15;101,85
2018-02-04 16:30;97,1
2018-02-04 16:45;103,45
2018-02-04 17:00;103,5
2018-02-04 17:15;95,55
2018-02-04 17:30;98,5
2018-02-04 17:45;104,65
2018-02-04 18:00;108,85
2018-02-04 18:15;110,9
2018-02-04 18:30;108,15
2018-02-04 18:45;111,45
2018-02-04 19:00;116,9
2018-02-04 19:15;107,85
2018-02-04 19:30;108,9
2018-02-04 19:45;107,95
2018-02-04 20:00;107,95
2018-02-04 20:15;106,3
2018-02-04 20:30;102,8
2018-02-04 20:45;102,2
2018-02-04 21:00;103,1
2018-02-04 21:15;102,15
2018-02-04 21:30;99,85
2018-02-04 21:45;97,9
2018-02-04 22:00;95,3
2018-02-04 22:15;93,65
2018-02-04 22:30;92,95
2018-02-04 22:45;92,5
2018-02-04 23:00;98,4
2018-02-04 23:15;92,25
2018-02-04 23:30;95,05
2018-02-04 23:45;101,2

